Location: Newark
(52.4787°S, 179.0532°W)
Time: 23:43:32
(UTC+00:00)

Transit 2A - All Passes

Search period start: 13 November 2019 00:00
Search period end: 23 November 2019 00:00
Orbit: 601 x 957 km, 66.7° (Epoch: 12 November)

Date Brightness Start Highest point End Pass type
(mag) Time Alt. Az. Time Alt. Az. Time Alt. Az.
13 Nov - 12:44:17 10° NNE 12:49:03 29° ENE 12:54:11 10° SE visible
13 Nov - 14:26:06 10° NW 14:31:50 72° SW 14:38:06 10° SE visible
13 Nov - 16:11:00 10° W 16:16:09 29° SSW 16:21:37 10° SE daylight
13 Nov - 17:56:39 10° SW 18:01:25 22° S 18:06:18 10° SE daylight
13 Nov - 19:40:53 10° SW 19:46:34 33° SSE 19:52:18 10° E daylight
13 Nov - 21:24:15 10° SW 21:30:43 85° SE 21:37:02 10° NE daylight
13 Nov - 23:08:16 10° SW 23:13:23 26° WNW 23:18:22 10° NNW daylight
14 Nov - 12:11:00 10° NNE 12:15:12 22° ENE 12:19:39 10° ESE visible
14 Nov - 13:51:56 10° NW 13:57:39 90° SW 14:03:55 10° SE visible
14 Nov - 15:36:24 10° W 15:41:43 33° SSW 15:47:24 10° SE daylight
14 Nov - 17:22:08 10° SW 17:26:52 22° S 17:31:45 10° SE daylight
14 Nov - 19:06:41 10° SW 19:12:09 29° SSE 19:17:39 10° E daylight
14 Nov - 20:50:06 10° SW 20:56:31 69° SE 21:02:49 10° NE daylight
14 Nov - 22:33:50 10° SW 22:39:29 34° WNW 22:44:59 10° N daylight
15 Nov - 11:38:06 10° NE 11:41:24 16° ENE 11:44:51 10° ESE visible
15 Nov - 13:17:53 10° NNW 13:23:32 71° ENE 13:29:44 10° SE visible
15 Nov - 15:01:50 10° W 15:07:19 38° SSW 15:13:11 10° SE visible
15 Nov - 16:47:33 10° WSW 16:52:20 23° S 16:57:16 10° SE daylight
15 Nov - 18:32:25 10° SW 18:37:40 26° SSE 18:42:58 10° ESE daylight
15 Nov - 20:15:57 10° SW 20:22:16 56° SE 20:28:30 10° ENE daylight
15 Nov - 21:59:30 10° SW 22:05:31 44° WNW 22:11:23 10° N daylight
16 Nov - 11:06:04 10° ENE 11:07:39 11° E 11:09:16 10° E visible
16 Nov - 12:43:58 10° NNW 12:49:29 55° ENE 12:55:31 10° SE visible
16 Nov - 14:27:21 10° WNW 14:32:58 45° SW 14:39:01 10° SE visible
16 Nov - 16:12:55 10° WSW 16:17:48 24° SSW 16:22:52 10° SE daylight
16 Nov - 17:58:06 10° SW 18:03:09 24° SSE 18:08:17 10° ESE daylight
16 Nov - 19:41:48 10° SW 19:47:58 47° SE 19:54:05 10° ENE daylight
16 Nov - 21:25:14 10° SW 21:31:31 57° WNW 21:37:36 10° NNE daylight
16 Nov - 23:10:48 10° WSW 23:13:30 13° W 23:16:11 10° NW daylight
17 Nov - 12:10:13 10° N 12:15:29 41° ENE 12:21:14 10° SE visible
17 Nov - 13:52:56 10° WNW 13:58:40 55° SW 14:04:52 10° SE visible
17 Nov - 15:38:16 10° WSW 15:43:17 26° SSW 15:48:32 10° SE daylight
17 Nov - 17:23:44 10° SW 17:28:38 23° S 17:33:37 10° ESE daylight
17 Nov - 19:07:39 10° SW 19:13:37 39° SSE 19:19:34 10° ENE daylight
17 Nov - 20:51:01 10° SW 20:57:26 73° NW 21:03:40 10° NNE daylight
17 Nov - 22:35:39 10° WSW 22:39:44 18° WNW 22:43:44 10° NW daylight
18 Nov - 11:36:39 10° N 11:41:33 31° ENE 11:46:52 10° SE visible
18 Nov - 13:18:38 10° NW 13:24:24 69° SW 13:30:43 10° SE visible
18 Nov - 15:03:37 10° W 15:08:48 28° SSW 15:14:15 10° SE visible
18 Nov - 16:49:17 10° SW 16:54:05 22° S 16:59:00 10° SE daylight
18 Nov - 18:33:28 10° SW 18:39:14 34° SSE 18:44:59 10° E daylight
18 Nov - 20:16:50 10° SW 20:23:18 89° SE 20:29:36 10° NE daylight
18 Nov - 22:00:57 10° WSW 22:05:54 24° WNW 22:10:43 10° NNW daylight
19 Nov - 11:03:18 10° NNE 11:07:41 23° ENE 11:12:23 10° ESE visible
19 Nov - 12:44:26 10° NW 12:50:13 86° SW 12:56:33 10° SE visible
19 Nov - 14:29:00 10° W 14:34:22 32° SSW 14:40:01 10° SE visible
19 Nov - 16:14:46 10° SW 16:19:32 22° S 16:24:26 10° SE daylight
19 Nov - 17:59:15 10° SW 18:04:47 30° SSE 18:10:21 10° E daylight
19 Nov - 19:42:40 10° SW 19:49:08 73° SE 19:55:25 10° NE daylight
19 Nov - 21:26:29 10° SW 21:32:01 32° WNW 21:37:24 10° N daylight
20 Nov - 10:30:17 10° NE 10:33:52 17° ENE 10:37:40 10° ESE visible
20 Nov - 12:10:22 10° NNW 12:16:06 75° NE 12:22:22 10° SE visible
20 Nov - 13:54:26 10° W 13:59:57 37° SSW 14:05:49 10° SE visible
20 Nov - 15:40:11 10° WSW 15:45:00 23° S 15:49:57 10° SE daylight
20 Nov - 17:25:01 10° SW 17:30:20 27° SSE 17:35:40 10° ESE daylight
20 Nov - 19:08:32 10° SW 19:14:53 59° SE 19:21:07 10° ENE daylight
20 Nov - 20:52:07 10° SW 20:58:04 41° WNW 21:03:51 10° N daylight
21 Nov - 09:57:54 10° ENE 10:00:08 12° E 10:02:24 10° ESE visible
21 Nov - 11:36:25 10° NNW 11:42:01 58° ENE 11:48:09 10° SE visible
21 Nov - 13:19:56 10° WNW 13:25:35 44° SW 13:31:39 10° SE visible
21 Nov - 15:05:33 10° WSW 15:10:28 24° S 15:15:32 10° SE daylight
21 Nov - 16:50:42 10° SW 16:55:49 25° SSE 17:01:00 10° ESE daylight
21 Nov - 18:34:23 10° SW 18:40:36 49° SE 18:46:43 10° ENE daylight
21 Nov - 20:17:51 10° SW 20:24:04 54° WNW 20:30:06 10° NNE daylight
21 Nov - 22:03:47 10° WSW 22:06:00 12° W 22:08:11 10° WNW daylight
22 Nov - 11:02:37 10° N 11:08:01 44° ENE 11:13:53 10° SE visible
22 Nov - 12:45:30 10° WNW 12:51:16 53° SW 12:57:29 10° SE visible
22 Nov - 14:30:55 10° WSW 14:35:56 25° SSW 14:41:10 10° SE visible
22 Nov - 16:16:20 10° SW 16:21:18 23° S 16:26:19 10° ESE daylight
22 Nov - 18:00:13 10° SW 18:06:15 41° SE 18:12:13 10° ENE daylight
22 Nov - 19:43:37 10° SW 19:50:01 69° WNW 19:56:12 10° NNE daylight
22 Nov - 21:28:25 10° WSW 21:32:14 17° WNW 21:35:59 10° NW daylight
